Weather History for LEBA - June, 2013

Change the Weather History Date:

Sunday, June 23, 2013

  Actual Average Record
Temperature  
Mean Temperature 80 °F -  
Max Temperature 99 °F - - ()
Min Temperature 61 °F - - ()
Cooling Degree Days 15    
Growing Degree Days 30 (Base 50)    
Moisture  
Dew Point 49 °F    
Average Humidity 34    
Maximum Humidity 68    
Minimum Humidity 8    
Precipitation  
Precipitation 0.00 in 0.01 in - ()
Sea Level Pressure  
Sea Level Pressure 30.04 in    
Wind  
Wind Speed 2 mph ()    
Max Wind Speed 6 mph    
Max Gust Speed -    
Visibility 19.0 miles    
Events      
T = Trace of Precipitation, MM = Missing Value Source: Averaged Metar Reports

Daily Weather History Graph

Daily Weather History Graph

Search for Another Location

Airport or City:

Trip Planner

Search our weather history database for the weather conditions in past years. The results will help you decide how hot, cold, wet, or windy it might be!

Date:

Astronomy

Jun. 23, 2013 Rise Set
Actual Time 6:58 AM CEST 9:45 PM CEST
Civil Twilight 6:26 AM CEST 10:16 PM CEST
Nautical Twilight 5:47 AM CEST 10:55 PM CEST
Astronomical Twilight 5:02 AM CEST 11:40 PM CEST
Moon 9:46 PM CEST (6/23) 6:58 AM CEST (6/23)
Length of Visible Light 15h 50m
Length of Day
14h 47m
Full, 100% of the Moon is Illuminated
Jun 23
Full
Jun 23
Full
Jun 30
Last Quarter
Jul 8
New
Jul 16
First Quarter

Hourly Weather History & Observations

Time (CEST) Temp. Dew Point Humidity Pressure Visibility Wind Dir Wind Speed Gust Speed Precip Events Conditions
2:00 AM 72 °F 46 °F 29% 30.10 in - West 2.3 mph - -  
7:00 AM 60.8 °F 50.0 °F 68% 30.06 in - Calm Calm - N/A   Clear
7:31 AM 64.4 °F 51.8 °F 64% 30.06 in - Variable 2.3 mph - N/A   Clear
8:00 AM 66 °F 53 °F 52% 30.09 in 19 mi Calm Calm - -  
8:00 AM 64.4 °F 51.8 °F 64% 30.06 in - Calm Calm - N/A   Clear
8:17 AM 68.0 °F 50.0 °F 52% 30.06 in - Variable 1.2 mph - N/A   Clear
9:00 AM 71.6 °F 50.0 °F 46% 30.09 in - Variable 1.2 mph - N/A   Clear
9:41 AM 75.2 °F 50.0 °F 41% 30.09 in - Variable 2.3 mph - N/A   Clear
10:00 AM 75.2 °F 48.2 °F 38% 30.09 in - Variable 2.3 mph - N/A   Clear
10:33 AM 78.8 °F 48.2 °F 34% 30.09 in - Calm Calm - N/A   Clear
11:00 AM 80.6 °F 51.8 °F 37% 30.09 in - Calm Calm - N/A   Clear
12:00 PM 84.2 °F 50.0 °F 30% 30.09 in - SSE 2.3 mph - N/A   Clear
1:00 PM 87.8 °F 51.8 °F 29% 30.06 in - Variable 3.5 mph - N/A   Clear
2:00 PM 92 °F 48 °F 13% 30.05 in 25 mi WSW 4.6 mph - -  
2:00 PM 89.6 °F 51.8 °F 27% 30.06 in - SW 4.6 mph - N/A   Clear
3:00 PM 91.4 °F 50.0 °F 24% 30.04 in - West 4.6 mph - N/A   Clear
4:00 PM 93.2 °F 48.2 °F 21% 30.01 in - West 3.5 mph - N/A   Clear
5:00 PM 95.0 °F 48.2 °F 20% 30.01 in - SW 4.6 mph - N/A   Clear
6:00 PM 95.0 °F 46.4 °F 19% 29.98 in - SW 5.8 mph - N/A   Clear
7:00 PM 96.8 °F 48.2 °F 19% 29.95 in - SW 4.6 mph - N/A   Clear
8:00 PM 99 °F 43 °F 8% 29.94 in 25 mi SW 4.6 mph - -   Scattered Clouds
8:00 PM 95.0 °F 48.2 °F 20% 29.95 in - SW 3.5 mph - N/A   Clear
9:00 PM 93.2 °F 50.0 °F 23% 29.95 in - Variable 2.3 mph - N/A   Clear
10:00 PM 84.2 °F 50.0 °F 30% 29.98 in - West 4.6 mph - N/A   Clear
11:00 PM 82.4 °F 48.2 °F 30% 29.98 in - West 3.5 mph - N/A   Clear